Satellite: PO-28
Catalog number: 22829
Epoch time:      08219.47314070
Element set:       7
Inclination:      098.3690 deg
RA of node:       179.6012 deg
Eccentricity:    0.0010771
Arg of perigee:   080.7514 deg
Mean anomaly:     279.4891 deg
Mean motion:   14.30194674 rev/day
Decay rate:        9.5e-07 rev/day^2
Epoch rev:           77531
Checksum:              315

Satellite: GO-32
Catalog number: 25397
Epoch time:      08219.80190546
Element set:     665
Inclination:      098.3614 deg
RA of node:       252.4577 deg
Eccentricity:    0.0002267
Arg of perigee:   097.7180 deg
Mean anomaly:     262.4265 deg
Mean motion:   14.23146058 rev/day
Decay rate:      -1.35e-06 rev/day^2
Epoch rev:           52341
Checksum:              309

Satellite: NO-44
Catalog number: 26931
Epoch time:      08219.79972114
Element set:    0946
Inclination:      067.0527 deg
RA of node:       154.2721 deg
Eccentricity:    0.0007359
Arg of perigee:   266.0905 deg
Mean anomaly:     093.9362 deg
Mean motion:   14.29529480 rev/day
Decay rate:       -9.6e-07 rev/day^2
Epoch rev:           35764
Checksum:              337

Satellite: SO-50
Catalog number: 27607
Epoch time:      08219.64228090
Element set:    0671
Inclination:      064.5583 deg
RA of node:       260.4065 deg
Eccentricity:    0.0086427
Arg of perigee:   269.7437 deg
Mean anomaly:     089.3775 deg
Mean motion:   14.71372602 rev/day
Decay rate:        6.2e-07 rev/day^2
Epoch rev:           30239
Checksum:              319

Satellite: CO-55
Catalog number: 27844
Epoch time:      08219.72597670
Element set:    0368
Inclination:      098.7161 deg
RA of node:       227.2913 deg
Eccentricity:    0.0009673
Arg of perigee:   337.2504 deg
Mean anomaly:     022.8230 deg
Mean motion:   14.20590516 rev/day
Decay rate:        1.0e-07 rev/day^2
Epoch rev:           26461
Checksum:              303

Satellite: CO-57
Catalog number: 27848
Epoch time:      08219.51954303
Element set:    0318
Inclination:      098.7167 deg
RA of node:       226.1751 deg
Eccentricity:    0.0009841
Arg of perigee:   340.8528 deg
Mean anomaly:     019.2275 deg
Mean motion:   14.20399224 rev/day
Decay rate:        1.7e-07 rev/day^2
Epoch rev:           26455
Checksum:              320

Satellite: AO-51
Catalog number: 28375
Epoch time:      08219.61234850
Element set:    0167
Inclination:      098.0689 deg
RA of node:       241.3418 deg
Eccentricity:    0.0084985
Arg of perigee:   000.4495 deg
Mean anomaly:     359.6757 deg
Mean motion:   14.40614960 rev/day
Decay rate:       -5.0e-08 rev/day^2
Epoch rev:           21566
Checksum:              328

Satellite: CO-56
Catalog number: 28941
Epoch time:      08220.38515539
Element set:     266
Inclination:      098.1103 deg
RA of node:       338.1915 deg
Eccentricity:    0.0159725
Arg of perigee:   214.3717 deg
Mean anomaly:     144.7254 deg
Mean motion:   15.58757865 rev/day
Decay rate:     1.9158e-04 rev/day^2
Epoch rev:           13801
Checksum:              335

Satellite: CP3
Catalog number: 31128
Epoch time:      08219.71071927
Element set:     399
Inclination:      098.0342 deg
RA of node:       281.0061 deg
Eccentricity:    0.0103372
Arg of perigee:   177.9327 deg
Mean anomaly:     182.2345 deg
Mean motion:   14.51965273 rev/day
Decay rate:       -4.7e-07 rev/day^2
Epoch rev:            6926
Checksum:              302

Satellite: CP4
Catalog number: 31132
Epoch time:      08219.77027615
Element set:     380
Inclination:      098.0387 deg
RA of node:       283.4598 deg
Eccentricity:    0.0086183
Arg of perigee:   170.6088 deg
Mean anomaly:     189.6728 deg
Mean motion:   14.55134938 rev/day
Decay rate:       1.83e-06 rev/day^2
Epoch rev:            6930
Checksum:              333

/EX
SB KEPS @ AMSAT  $ORB08220.W
Orbital Elements  08220.WEATHER

HR AMSAT ORBITAL ELEMENTS FOR WEATHER SATELLITES
FROM WA5QGD FORT WORTH,TX August 7, 2008
Send Subscribe/unsubscribe to KEPS at 
http://www.amsat.org/mailman/listinfo/keps
BID: ORB08220.W
TO ALL RADIO AMATEURS BT

Satellite: NOAA-10
Catalog number: 16969
Epoch time:      08219.76610966
Element set:    0237
Inclination:      098.7208 deg
RA of node:       241.6305 deg
Eccentricity:    0.0012914
Arg of perigee:   037.7572 deg
Mean anomaly:     322.4500 deg
Mean motion:   14.27364655 rev/day
Decay rate:      -1.20e-06 rev/day^2
Epoch rev:           13865
Checksum:              304

Satellite: NOAA-11
Catalog number: 19531
Epoch time:      08219.30616110
Element set:    0269
Inclination:      098.7979 deg
RA of node:       307.9331 deg
Eccentricity:    0.0010781
Arg of perigee:   286.9546 deg
Mean anomaly:     073.0479 deg
Mean motion:   14.14874704 rev/day
Decay rate:       1.90e-06 rev/day^2
Epoch rev:           02499
Checksum:              322

Satellite: NOAA-12
Catalog number: 21263
Epoch time:      08219.94827656
Element set:    0800
Inclination:      098.7684 deg
RA of node:       221.8982 deg
Eccentricity:    0.0012476
Arg of perigee:   343.6598 deg
Mean anomaly:     016.4177 deg
Mean motion:   14.25541381 rev/day
Decay rate:        2.3e-07 rev/day^2
Epoch rev:           89562
Checksum:              330

